STARLINK-34166, 64158

Orbit data source: Space-Track

STARLINK-34166, 64158 is a payload satellite owned by SpaceX/Seattle (US) in SSO that was launched on Tue, 27 May 2025 UTC via an FALCON 9 launch vehicle from the Air Force Western Test Range (AFWTR). Payload-class satellites include a variety of spacecraft equipped with specific instruments for various scientific and technological missions. These include communications satellites like Starlink; space stations such as the ISS; scientific satellites like the Hubble; Earth observation satellites from companies like Planet Labs, Umbra, and HawkEye 360; GPS; miniature CubeSats for education and research; and military/defense satellites.

Loading next visibility...
Identifier
64158, 2025-112N
Orbit
SSO
Country
Flag of USUS
Related business
Manufacturer
SpaceX/Seattle
Mission
Operational Commercial Communications
Bus & Motor
STARLINK V2MO, Unknown motor
Mass
575 kg wet, ~530 kg dry
Launch date (UTC)
2025-05-27 (1 year ago)
Launch vehicle
FALCON 9
Launch site
Air Force Western Test Range (AFWTR)
Object type
Payload
Rocket body
Debris
Shape & HBR
Box + 2 Pan, 17.7 m
Radar Cross Section
36.964 m², Large (>1 m²)

Expand to show TLE details & history
Last TLE update: 9 hours ago

TLE from 9 hours ago
0 STARLINK-34166
1 64158U 25112N   26145.38121326  .00004394  00000-0  30845-3 0  9992
2 64158  97.4503 196.6774 0001544  99.6406 260.4996 15.05648028 54848
Epoch: 2026-05-25T09:08Z
TLE epoch observation values (Epoch: 2026-05-25T09:08:56.825Z)
Latitude
-0°
Longitude
176.47081°
Altitude
552.764 km
Speed
7.585 km/s
True Right ascension
13h 06m 42s
True Declination
0° 00' 00"
Sunlit
Object was in full shadow at epoch
Visualization orbit readout
Latitude
Unknown
Longitude
Unknown
Altitude
Unknown
Speed
Unknown
Apparent Right ascension
Unknown
Apparent Declination
Unknown
Sunlit
N/A
Visualization observer readout
Local Sidereal Time
03:50:34
Azimuth
Unknown
Elevation
Unknown
Doppler factor
Unknown
Orbital elements
Apogee altitude
547.573 km
Perigee altitude
545.435 km
Semi-major axis
6,924.641 km
Eccentricity
0.00015
Inclination
97.4503°
RAAN
196.6774°
Arg. of periapsis
99.6406°
True anomaly
260.48215°
Mean anomaly
260.4996°
Eccentric anomaly
260.49088°
Mean motion
3.76658 °/min
Orbital period
95.58 mins
BSTAR
0.00030845
Loading maneuver chart data...
Computing Atmospheric mass density...
Loading historical data...
Loading historical data...
Loading historical data...
Loading historical data...
Loading historical data...
Loading historical data...
Loading historical data...

Documentation

Showing up to 5 results
|